Location: Newark
(44.1667°N, 8.2500°E)
Time: 11:40:07
(UTC+00:00)

Vanguard 2 - Pass Details

Date: 11 December 2019
Orbit: 553 x 2938 km, 32.9° (Epoch: 18 January)

Event Time Altitude Azimuth Distance (km) Brightness Sun altitude
Exits shadow 02:08:32 53° 156° (SSE) 3,384 10.5 -49.6°
Drops below altitude 10° 02:23:31 10° 99° (E) 5,431 12.3 -47.0°
Sets 02:27:28 0° 96° (E) 6,238 12.8 -46.3°
